Location: Newark
(55.0331°N, 59.0915°E)
Time: 14:07:34
(UTC+00:00)

ISS - Visible Passes

Search period start: 23 September 2020 00:00
Search period end: 03 October 2020 00:00
Orbit: 419 x 420 km, 51.6° (Epoch: 23 September)

Date Brightness Start Highest point End Pass type
(mag) Time Alt. Az. Time Alt. Az. Time Alt. Az.
23 Sep -3.3 15:50:54 10° WSW 15:54:08 43° S 15:54:30 41° SSE visible
23 Sep -0.6 17:27:26 10° W 17:27:27 10° W 17:27:27 10° W visible
24 Sep -3.0 15:03:39 10° SW 15:06:49 38° SSE 15:08:55 18° ESE visible
24 Sep -2.0 16:40:04 10° W 16:41:52 27° WSW 16:41:52 27° WSW visible
25 Sep -3.4 15:52:42 10° WSW 15:55:59 47° S 15:56:14 46° SSE visible
26 Sep -3.2 15:05:22 10° WSW 15:08:37 47° S 15:10:35 21° ESE visible
26 Sep -1.6 16:42:00 10° W 16:43:32 22° WSW 16:43:32 22° WSW visible
27 Sep -3.1 15:54:35 10° W 15:57:47 41° SSW 15:57:52 41° S visible
28 Sep -3.1 15:07:10 10° W 15:10:25 45° S 15:12:11 23° SE visible
28 Sep -1.2 16:44:02 10° W 16:45:08 16° WSW 16:45:08 16° WSW visible
29 Sep -3.1 14:19:46 10° WSW 14:23:02 47° S 14:26:18 10° ESE visible
29 Sep -2.4 15:56:30 10° W 15:59:27 29° SSW 15:59:27 29° SSW visible
30 Sep -2.6 15:09:00 10° W 15:12:07 35° SSW 15:13:48 21° SE visible
30 Sep -0.7 16:46:31 10° WSW 16:46:46 11° WSW 16:46:46 11° WSW visible
01 Oct -2.8 14:21:33 10° W 14:24:45 41° SSW 14:27:57 10° ESE visible
01 Oct -1.6 15:58:38 10° WSW 16:01:01 18° SSW 16:01:08 18° SSW visible
02 Oct -1.9 15:10:57 10° W 15:13:42 23° SSW 15:15:32 15° SSE visible
